Date String (YYYY-MM-DD hh:mm:ss) UTC,Instrument flags,Ambient pressure (hPa),Sample flow (lpm),Bypass flow (lpm),Sample temperature (°C),Ambient temperature (°C),ASC tube jacket temperature (°C),LED temperature (°C),Box temperature (°C),Sample RH (%),Span deviation,Mass concentration (μg/m³),Mass concentration (μg/m³),Mass concentration (μg/m³)
DateTimeUTC,F1_M11,P_M11,Q1_M11,Q2_M11,T1_M11,T2_M11,T3_M11,T4_M11,T5_M11,U1_M11,ZSPAN_M11,X0_M11,X2_M11,X1_M11
2022-08-05 18:00:00,,0826.5,4.99,0.00,30.2,27.2,00.0,38.6,31.3,33.5,0002.0,0026.82,0010.82,0008.28
2022-08-05 18:01:00,,0826.6,5.01,0.00,30.1,27.3,00.0,38.5,31.3,32.7,0002.0,0028.83,0010.98,0008.33
2022-08-05 18:02:00,,0826.6,4.99,0.00,30.0,27.5,00.0,38.5,31.3,32.7,0002.0,0029.93,0011.08,0008.38
2022-08-05 18:03:00,,0826.5,4.99,0.00,30.0,27.7,00.0,38.5,31.4,32.6,0001.9,0030.89,0011.12,0008.41
2022-08-05 18:04:00,,0826.6,5.01,0.00,30.1,27.9,00.0,38.6,31.5,32.4,0001.9,0032.14,0011.09,0008.43
2022-08-05 18:05:00,,0826.5,4.99,0.00,30.1,27.8,00.0,38.6,31.5,32.4,0002.1,0033.14,0011.18,0008.46
2022-08-05 18:06:00,,0826.5,5.00,0.00,30.0,27.4,00.0,38.5,31.4,32.9,0002.3,0034.76,0011.32,0008.48
2022-08-05 18:07:00,,0826.5,5.01,0.00,30.0,27.3,00.0,38.5,31.4,33.0,0002.4,0036.11,0011.42,0008.50
2022-08-05 18:08:00,,0826.5,4.99,0.00,29.9,27.3,00.0,38.5,31.3,32.9,0002.3,0037.63,0011.44,0008.50
2022-08-05 18:09:00,,0826.5,5.00,0.00,29.9,27.5,00.0,38.5,31.3,32.9,0002.4,0036.67,0011.49,0008.54
2022-08-05 18:10:00,,0826.5,5.00,0.00,29.9,27.7,00.0,38.5,31.3,32.9,0002.7,0037.17,0011.62,0008.60
2022-08-05 18:11:00,,0826.5,4.98,0.00,29.9,27.9,00.0,38.5,31.4,33.0,0002.7,0039.31,0011.71,0008.64
2022-08-05 18:12:00,,0826.5,5.00,0.00,29.9,28.0,00.0,38.5,31.5,33.2,0002.9,0038.28,0011.72,0008.67
2022-08-05 18:13:00,,0826.5,5.00,0.00,29.9,27.6,00.0,38.5,31.4,33.1,0003.1,0038.74,0011.80,0008.71
2022-08-05 18:14:00,,0826.5,5.00,0.00,29.8,27.4,00.0,38.4,31.3,33.3,0003.1,0039.79,0011.86,0008.73
2022-08-05 18:15:00,,0826.5,5.00,0.00,29.8,27.4,00.0,38.4,31.4,33.6,0003.1,0040.06,0011.99,0008.75
2022-08-05 18:16:00,,0826.5,5.01,0.00,29.8,27.5,00.0,38.4,31.3,33.3,0003.1,0039.59,0012.01,0008.78
2022-08-05 18:17:00,,0826.5,4.99,0.00,29.8,27.7,00.0,38.4,31.3,33.5,0002.9,0039.32,0011.97,0008.79
2022-08-05 18:18:00,,0826.4,5.00,0.00,29.8,27.9,00.0,38.4,31.4,33.5,0002.8,0038.43,0011.93,0008.79
2022-08-05 18:19:00,,0826.5,5.01,0.00,29.8,28.0,00.0,38.4,31.4,33.4,0003.0,0036.81,0011.94,0008.77
2022-08-05 18:20:00,,0826.5,4.99,0.00,29.8,27.6,00.0,38.4,31.4,32.9,0003.1,0037.01,0011.97,0008.74
2022-08-05 18:21:00,,0826.5,5.00,0.00,29.7,27.4,00.0,38.4,31.4,32.5,0003.0,0037.20,0011.92,0008.70
2022-08-05 18:22:00,,0826.4,4.99,0.00,29.7,27.4,00.0,38.3,31.3,32.1,0003.2,0036.06,0011.88,0008.63
2022-08-05 18:23:00,,0826.5,5.00,0.00,29.7,27.6,00.0,38.3,31.3,31.6,0003.2,0036.02,0011.85,0008.57
2022-08-05 18:24:00,,0826.5,5.00,0.00,29.6,27.7,00.0,38.3,31.3,31.3,0003.4,0035.32,0011.72,0008.48
2022-08-05 18:25:00,,0826.5,5.02,0.00,29.7,27.9,00.0,38.3,31.4,31.6,0003.3,0034.83,0011.67,0008.43
2022-08-05 18:26:00,,0826.5,4.99,0.00,29.7,27.7,00.0,38.3,31.4,31.7,0002.9,0034.35,0011.56,0008.37
2022-08-05 18:27:00,,0826.5,5.00,0.00,29.6,27.2,00.0,38.3,31.3,31.5,0002.7,0034.90,0011.42,0008.30
2022-08-05 18:28:00,,0826.5,4.99,0.00,29.6,27.0,00.0,38.2,31.2,31.6,0002.7,0034.33,0011.32,0008.23
2022-08-05 18:29:00,,0826.5,5.01,0.00,29.5,27.1,00.0,38.2,31.1,31.3,0002.6,0033.73,0011.23,0008.16
2022-08-05 18:30:00,,0826.5,5.01,0.00,29.5,27.2,00.0,38.2,31.1,31.3,0002.1,0034.41,0011.14,0008.11
2022-08-05 18:31:00,,0826.5,4.99,0.00,29.5,27.4,00.0,38.2,31.2,29.9,0002.0,0033.62,0010.98,0008.03
2022-08-05 18:32:00,,0826.5,5.01,0.00,29.5,27.7,00.0,38.2,31.2,30.3,0002.2,0032.63,0010.90,0007.94
2022-08-05 18:33:00,,0826.5,4.99,0.00,29.5,27.7,00.0,38.2,31.3,29.9,0002.1,0032.45,0010.73,0007.89
2022-08-05 18:34:00,,0826.5,5.01,0.00,29.5,27.4,00.0,38.2,31.2,29.7,0002.4,0031.64,0010.53,0007.83
2022-08-05 18:35:00,,0826.4,4.99,0.00,29.5,27.3,00.0,38.1,31.2,30.3,0002.3,0030.83,0010.49,0007.78
2022-08-05 18:36:00,,0826.5,5.01,0.00,29.4,27.4,00.0,38.1,31.2,30.6,0002.1,0030.37,0010.42,0007.73
2022-08-05 18:37:00,,0826.5,4.99,0.00,29.4,27.6,00.0,38.1,31.1,30.8,0002.6,0029.13,0010.36,0007.69
2022-08-05 18:38:00,,0826.5,5.01,0.00,29.4,27.8,00.0,38.1,31.2,31.0,0002.8,0028.70,0010.33,0007.65
2022-08-05 18:39:00,,0826.5,5.01,0.00,29.5,27.9,00.0,38.1,31.3,31.5,0002.7,0030.30,0010.32,0007.63
2022-08-05 18:40:00,,0826.5,4.99,0.00,29.5,27.7,00.0,38.1,31.3,31.1,0002.8,0032.83,0010.37,0007.62
2022-08-05 18:41:00,,0826.5,5.02,0.00,29.4,27.4,00.0,38.1,31.2,31.0,0002.9,0032.41,0010.45,0007.63
2022-08-05 18:42:00,,0826.5,5.00,0.00,29.4,27.3,00.0,38.1,31.2,31.3,0002.5,0032.88,0010.50,0007.65
2022-08-05 18:43:00,,0826.5,5.00,0.00,29.4,27.4,00.0,38.1,31.1,31.6,0002.3,0032.70,0010.48,0007.67
2022-08-05 18:44:00,,0826.5,4.99,0.00,29.4,27.6,00.0,38.1,31.1,31.7,0002.4,0031.57,0010.57,0007.69
2022-08-05 18:45:00,,0826.5,5.01,0.00,29.4,27.8,00.0,38.1,31.2,32.0,0002.6,0031.99,0010.72,0007.72
2022-08-05 18:46:00,,0826.5,5.00,0.00,29.4,27.7,00.0,38.1,31.2,31.5,0002.8,0032.95,0010.75,0007.74
2022-08-05 18:47:00,,0826.5,5.01,0.00,29.4,27.3,00.0,38.0,31.2,31.5,0002.9,0033.15,0010.86,0007.76
2022-08-05 18:48:00,,0826.5,5.00,0.00,29.3,27.2,00.0,38.0,31.1,32.0,0002.5,0033.87,0010.92,0007.78
2022-08-05 18:49:00,,0826.4,5.01,0.00,29.3,27.2,00.0,38.0,31.0,32.4,0002.4,0035.01,0011.06,0007.80
2022-08-05 18:50:00,,0826.4,4.99,0.00,29.3,27.4,00.0,38.0,31.0,32.2,0002.6,0033.20,0011.16,0007.81
2022-08-05 18:51:00,,0826.3,4.99,0.00,29.3,27.6,00.0,38.0,31.1,32.5,0002.5,0030.62,0011.14,0007.82
2022-08-05 18:52:00,,0826.3,5.01,0.00,29.3,27.7,00.0,38.0,31.2,31.8,0002.5,0031.05,0011.06,0007.82
2022-08-05 18:53:00,,0826.3,4.99,0.00,29.3,27.4,00.0,38.0,31.1,31.7,0002.9,0030.89,0011.10,0007.83
2022-08-05 18:54:00,,0826.2,5.01,0.00,29.3,27.1,00.0,38.0,31.1,32.5,0003.4,0030.75,0011.15,0007.84
2022-08-05 18:55:00,,0826.3,4.99,0.00,29.3,27.2,00.0,38.0,31.1,32.5,0003.2,0032.11,0011.16,0007.86
2022-08-05 18:56:00,,0826.2,5.01,0.00,29.2,27.3,00.0,38.0,31.0,31.3,0002.6,0031.92,0011.03,0007.85
2022-08-05 18:57:00,,0826.3,4.99,0.00,29.2,27.5,00.0,38.0,31.0,30.2,0002.1,0030.41,0010.94,0007.81
2022-08-05 18:58:00,,0826.3,5.00,0.00,29.3,27.7,00.0,38.0,31.1,29.9,0002.0,0029.65,0010.74,0007.78
2022-08-05 18:59:00,,0826.5,5.01,0.00,29.3,27.8,00.0,38.0,31.2,29.8,0001.9,0028.29,0010.62,0007.73
